Lexington Weather

Lexington, Massachusetts, USA

34°F
4/16/2021 10:29am 
  • Lexington Conditions: Snow, Fog, Overcast
  • Temperature: 34.0°F / 1.1°C 
  • Dew Point: 32.7°F 
  • Relative Humidity: 95
  • Wind: Calm, 10-min avg: Calm, gust: None
  • Barometer: 29.48 in Steady
  • Visibility: ½ mile
  • Snow Today: 1.3 in
  •   

Regional Weather Roundup
for Boston / Norton, MA

        
000
ASUS41 KBOX 110305
RWRBOX

REGIONAL WEATHER ROUNDUP
NATIONAL WEATHER SERVICE BOSTON/NORTON MA
1100 PM EDT SAT APR 10 2021

NOTE:  "FAIR" INDICATES FEW OR NO CLOUDS BELOW 12,000 FEET WITH NO 
SIGNIFICANT WEATHER AND/OR OBSTRUCTIONS TO VISIBILITY.

MAZALL-110400-
EASTERN MASSACHUSETTS
  
CITY           SKY/WX    TMP DP  RH WIND       PRES   REMARKS
BOSTON         PTCLDY    62  51  67 SW9       29.73F                  
BEVERLY        NOT AVBL                                               
LAWRENCE       CLEAR     63  53  70 SW7       29.73F                  
BEDFORD        PTCLDY    62  51  67 SW7       29.72F                  
BLUE HILL        N/A     55  50  83 S13       29.74F                  
NORWOOD        PTCLDY    57  49  74 SE7       29.75F                  
MARSHFIELD     PTCLDY    59  52  77 SW12G21   29.74F                  
PLYMOUTH       PTCLDY    54  48  80 SW9       29.76F                  
TAUNTON        PTCLDY    54  49  83 S7        29.77F                  
NEW BEDFORD    PTCLDY    52  49  89 SW7       29.77F                  
$$

MAZALL-110400-
CAPE COD AND THE ISLANDS
  
CITY           SKY/WX    TMP DP  RH WIND       PRES   REMARKS
FALMOUTH       CLEAR     50  50 100 SW9       29.79F                  
HYANNIS        FOG       49  48  97 SW8       29.77F VSB 3/4          
CHATHAM        FOG       47  46  97 SW9       29.79F VSB 3/4          
PROVINCETOWN   CLEAR     47  46  97 SW15      29.76                   
NANTUCKET      FOG       46  46 100 SW8       29.81F VSB 1/4          
MARTHAS VNYRD  FOG       48  48 100 SW9       29.79F VSB 1/2          
$$
 
MAZALL-110400-
CENTRAL AND WESTERN MASSACHUSETTS
  
CITY           SKY/WX    TMP DP  RH WIND       PRES   REMARKS
WORCESTER      MOCLDY    58  50  75 W14       29.76F                  
FITCHBURG      MOCLDY    63  53  70 VRB3      29.73F                  
ORANGE         MOCLDY    57  51  80 S6        29.76S                  
SPRINGFIELD    MOCLDY    58  51  78 S6        29.75S                  
WESTFIELD      MOCLDY    59  52  77 S8        29.75F                  
NORTH ADAMS    MOCLDY    56  47  71 CALM      29.75F                  
PITTSFIELD     MOCLDY    56  51  84 CALM      29.76S                  
$$
 
RIZALL-110400-
RHODE ISLAND
  
CITY           SKY/WX    TMP DP  RH WIND       PRES   REMARKS
PROVIDENCE     MOCLDY    54  50  86 S5        29.78F                  
NEWPORT        FOG       48  48 100 VRB6      29.79F VSB 1/4          
BLOCK ISLAND   LGT RAIN  48  47  96 S14       29.80F VSB 1/2          
SMITHFIELD     MOCLDY    56  53  90 SW8       29.77F                  
WESTERLY       FOG       47  47 100 SW6       29.80F VSB 1/2          
$$
 
CTZALL-110400-
CONNECTICUT
  
CITY           SKY/WX    TMP DP  RH WIND       PRES   REMARKS
BRADLEY INTL   MOCLDY    59  51  75 S9        29.76F                  
HARTFORD       MOCLDY    58  51  78 S6        29.78S                  
BRIDGEPORT     MOCLDY    54  50  86 S9        29.78F                  
DANBURY        MOCLDY    59  53  80 CALM      29.79F                  
GROTON         MOCLDY    46  46 100 CALM      29.80F                  
NEW HAVEN      MOCLDY    52  50  93 CALM      29.79F                  
CHESTER        FAIR      52  52 100 CALM      29.79F                  
MERIDEN        MOCLDY    55  50  83 S6        29.78F                  
WILLIMANTIC    MOCLDY    57  50  77 CALM      29.78F                  
OXFORD         MOCLDY    54  54 100 CALM      29.79F                  
$$

MEZ002-015-021-024-NHZ003-005-008-011-012-014-VTZ005-008-110400-
NORTHERN NEW ENGLAND
  
CITY           SKY/WX    TMP DP  RH WIND       PRES   REMARKS
PORTLAND ME    MOCLDY    47  45  93 NE14      29.75R                  
BANGOR ME      LGT RAIN  47  42  83 S7        29.81F                  
CONCORD NH     PTCLDY    57  48  72 CALM      29.70F                  
MANCHESTER NH  PTCLDY    65  52  62 S7        29.70F                  
NASHUA NH      PTCLDY    64  55  72 CALM      29.72F                  
PORTSMOUTH NH  CLEAR     53  47  79 CALM      29.71F                  
JAFFREY NH     MOCLDY    58  52  80 SW5       29.75F                  
KEENE NH       MOCLDY    57  52  83 CALM      29.74S                  
BURLINGTON VT  PTCLDY    59  49  69 CALM      29.71F                  
MT. WASHINGTON NOT AVBL                                               
$$

NYZ052-076-110400-
EASTERN NEW YORK
  
CITY           SKY/WX    TMP DP  RH WIND       PRES   REMARKS
ALBANY         CLOUDY    62  53  72 SE8       29.73F                  
NEW YORK CITY  CLOUDY    56  53  90 S7        29.79F FOG              
$$
 
ANZALL-110400-
MARINE OBSERVATIONS
  
STATION/POSITION TIME  TEMP    WIND        PRES    VSBY  WAVE
                       AIR SEA DIR/SP/G                  HT/PER
                 (UTC) (F)     (DEG/KT/KT) (MB)    (MI)  (FT/S)
BOSTON BUOY      0240   50 46  200/  6/  8 1006.9F
BUZZARDS BAY     0200          200/ 17/ 17 1010.1F
NANTUCKET SOUND  0250      47                N/A           1/ 2
MASS BAY-STELLWA 0204   51     210/ 10/ 12 1005.6F  1 7/8  4/11
ISLE OF SHOALS   0200   62     210/ 21/ 21 1005.5F
S OF BLOCK IS    0226      46                N/A           3/11
$$

......................KEY.........................
  SKY/WX - SKY CONDITION/PRESENT WEATHER
  TMP    - TEMPERATURE IN FAHRENHEIT
  DWPT   - DEWPOINT IN FAHRENHEIT
  RH     - RELATIVE HUMIDITY IN PERCENT
  WIND   - DIRECTION AND SPEED IN MPH
  PRES   - MEAN SEA LEVEL PRESSURE IN INCHES OF HG
  WCI    - WIND CHILL INDEX
  VSB    - VISIBILITY IN MILES
  HX     - HEAT INDEX
  TC     - TEMPERATURE IN CELSIUS
  VRB    - VARIABLE WIND DIRECTION
  N/A    - NOT AVAILABLE
  
      

Other recent Regional Weather Roundups

Fri Apr 16, 10:05am

Fri Apr 16, 9:04am

Fri Apr 16, 8:04am

Fri Apr 16, 7:04am

Fri Apr 16, 6:04am

Fri Apr 16, 5:04am

Fri Apr 16, 4:04am

Fri Apr 16, 3:04am

Fri Apr 16, 2:04am

Fri Apr 16, 1:04am

Fri Apr 16, 12:04am

Thu Apr 15, 11:05pm

Thu Apr 15, 10:04pm

Thu Apr 15, 9:04pm

Thu Apr 15, 8:04pm

Thu Apr 15, 7:05pm

Thu Apr 15, 6:04pm

Thu Apr 15, 5:05pm

Thu Apr 15, 4:04pm

Thu Apr 15, 3:05pm

Thu Apr 15, 2:04pm

Thu Apr 15, 1:05pm

Thu Apr 15, 12:04pm

Thu Apr 15, 11:04am

Thu Apr 15, 10:05am

Thu Apr 15, 9:04am

Thu Apr 15, 8:04am

Thu Apr 15, 7:04am

Thu Apr 15, 6:04am

Thu Apr 15, 5:04am

Thu Apr 15, 4:04am

Thu Apr 15, 3:04am

Thu Apr 15, 2:04am

Thu Apr 15, 1:04am

Thu Apr 15, 12:04am

Wed Apr 14, 11:04pm

Wed Apr 14, 10:04pm

Wed Apr 14, 9:04pm

Wed Apr 14, 8:04pm

Wed Apr 14, 7:04pm

Wed Apr 14, 6:04pm

Wed Apr 14, 5:05pm

Wed Apr 14, 4:04pm

Wed Apr 14, 3:05pm

Wed Apr 14, 2:04pm

Wed Apr 14, 1:05pm

Wed Apr 14, 12:04pm

Wed Apr 14, 11:04am

Wed Apr 14, 10:04am

Wed Apr 14, 9:04am

Wed Apr 14, 8:04am

Wed Apr 14, 7:04am

Wed Apr 14, 6:04am

Wed Apr 14, 5:04am

Wed Apr 14, 4:04am

Wed Apr 14, 3:04am

Wed Apr 14, 2:04am

Wed Apr 14, 1:04am

Wed Apr 14, 12:04am

Tue Apr 13, 11:04pm

Tue Apr 13, 10:05pm

Tue Apr 13, 9:05pm

Tue Apr 13, 8:05pm

Tue Apr 13, 7:04pm

Tue Apr 13, 6:04pm

Tue Apr 13, 5:05pm

Tue Apr 13, 4:04pm

Tue Apr 13, 3:04pm

Tue Apr 13, 2:05pm

Tue Apr 13, 1:04pm

Tue Apr 13, 12:05pm

Tue Apr 13, 11:05am

Tue Apr 13, 10:04am

Tue Apr 13, 9:04am

Tue Apr 13, 8:04am

Tue Apr 13, 7:04am

Tue Apr 13, 6:04am

Tue Apr 13, 5:04am

Tue Apr 13, 4:04am

Tue Apr 13, 3:04am

Tue Apr 13, 2:04am

Tue Apr 13, 1:04am

Tue Apr 13, 12:05am

Mon Apr 12, 11:04pm

Mon Apr 12, 10:04pm

Mon Apr 12, 9:04pm

Mon Apr 12, 8:04pm

Mon Apr 12, 7:05pm

Mon Apr 12, 6:04pm

Mon Apr 12, 5:04pm

Mon Apr 12, 4:04pm

Mon Apr 12, 3:05pm

Mon Apr 12, 2:04pm

Mon Apr 12, 1:05pm

Mon Apr 12, 12:04pm

Mon Apr 12, 11:04am

Mon Apr 12, 10:04am

Mon Apr 12, 9:04am

Mon Apr 12, 8:04am

Mon Apr 12, 7:04am

Mon Apr 12, 6:04am

Mon Apr 12, 5:04am

Mon Apr 12, 4:04am

Mon Apr 12, 3:04am

Mon Apr 12, 2:04am

Mon Apr 12, 1:05am

Mon Apr 12, 12:04am

Sun Apr 11, 11:04pm

Sun Apr 11, 10:04pm

Sun Apr 11, 9:04pm

Sun Apr 11, 8:04pm

Sun Apr 11, 7:04pm

Sun Apr 11, 6:05pm

Sun Apr 11, 5:05pm

Sun Apr 11, 4:04pm

Sun Apr 11, 3:05pm

Sun Apr 11, 2:05pm

Sun Apr 11, 1:05pm

Sun Apr 11, 12:04pm

Sun Apr 11, 11:05am

Sun Apr 11, 10:05am

Sun Apr 11, 9:04am

Sun Apr 11, 8:04am

Sun Apr 11, 7:04am

Sun Apr 11, 6:04am

Sun Apr 11, 5:04am

Sun Apr 11, 4:04am

Sun Apr 11, 3:04am

Sun Apr 11, 2:04am

Sun Apr 11, 1:05am

Sun Apr 11, 12:04am

Sat Apr 10, 10:04pm

Sat Apr 10, 9:04pm

Sat Apr 10, 8:04pm

Sat Apr 10, 7:05pm

Sat Apr 10, 6:04pm

Sat Apr 10, 5:04pm

Sat Apr 10, 4:04pm

Sat Apr 10, 3:04pm

Sat Apr 10, 2:05pm

Sat Apr 10, 1:04pm

Sat Apr 10, 12:04pm

Sat Apr 10, 11:04am

Sat Apr 10, 10:04am

Sat Apr 10, 9:04am

Sat Apr 10, 8:04am

Sat Apr 10, 7:04am

Sat Apr 10, 6:04am

Sat Apr 10, 5:04am

Sat Apr 10, 4:04am

Sat Apr 10, 3:04am

Sat Apr 10, 2:04am

Sat Apr 10, 1:05am

Sat Apr 10, 12:04am

Fri Apr 9, 11:04pm

Fri Apr 9, 10:05pm

Fri Apr 9, 9:04pm

Fri Apr 9, 8:05pm

Fri Apr 9, 7:05pm

Fri Apr 9, 6:04pm

Fri Apr 9, 5:04pm

Fri Apr 9, 4:05pm

Fri Apr 9, 3:05pm

Fri Apr 9, 2:04pm

Fri Apr 9, 1:04pm

Fri Apr 9, 12:04pm

Fri Apr 9, 11:05am

Meta data:

ID: 108ea6c2-9dee-45c0-bf47-ca0962bc3382
Link: https://api.weather.gov/products/108ea6c2-9dee-45c0-bf47-ca0962bc3382